YAOGAN 22               
1 40275U 14063A   19262.05207164 -.00000045  00000-0  00000+0 0  9996
2 40275 100.4767  13.6442 0006035   3.4530 356.6628 13.15337408235959
CZ-4C R/B               
1 40276U 14063B   19261.85026297 -.00000052  00000-0 -69314-5 0  9998
2 40276 100.4458  97.2078 0143325  47.5498 313.7646 13.42858572240866